Regional Weather Roundup
Issued by NWS

Home | Current Version | Previous Version | Graphics & Text | Print | Product List | Glossary On
Versions: 1 2 3 4 5 6 7 8 9 10 11 12 13 14 15 16 17 18 19 20 21 22 23 24 25 26 27 28 29 30 31 32 33 34 35 36 37 38 39 40 41 42 43 44 45 46 47 48 49 50
000
ASUS43 KMPX 250801
RWRMN
WEATHER ROUNDUP FOR MINNESOTA
NATIONAL WEATHER SERVICE TWIN CITIES/CHANHASSEN MN
300 AM CDT WED MAY 25 2016


NOTE: "FAIR" INDICATES FEW OR NO CLOUDS BELOW 12,000 FEET WITH NO
SIGNIFICANT WEATHER AND/OR OBSTRUCTIONS TO VISIBILITY. N/A MEANS
CURRENT SKY AND/OR WEATHER CONDITIONS ARE NOT AVAILABLE.

MNZ060>063-068>070-250900-
   Twin Cities Metro

CITY           SKY/WX    TMP DP  RH WIND       PRES   REMARKS
TWIN CITIES    CLOUDY    68  57  68 E7        29.92S
ST PAUL        CLOUDY    62  58  86 CALM      29.93S
CRYSTAL        CLOUDY    63  55  75 CALM      29.91F
BLAINE         CLOUDY    63  57  82 CALM      29.92F
EDEN PRAIRIE   CLOUDY    66  57  72 NE6       29.91S
SOUTH ST PAUL  CLOUDY    64  56  74 CALM      29.92F
LAKE ELMO      FAIR      59  55  88 E3        29.94F
$$
MNZ001>005-007-008-013>017-022>024-027-028-250900-
   Northwest Minnesota

CITY           SKY/WX    TMP DP  RH WIND       PRES   REMARKS
BEMIDJI        CLEAR     51  49  92 E3        29.93F
HALLOCK        HAZE      59  52  77 E8        29.89F VSB 1
ROSEAU         CLEAR     57  52  82 E3        29.93S
WARROAD        CLEAR     55  52  88 SE5       29.94F
THIEF RVR FALL CLOUDY    61  48  63 E8        29.92F
CROOKSTON      CLOUDY    61  52  72 E8        29.90R
FOSSTON        PTCLDY    54  46  76 E3        29.92S
DETROIT LAKES  PTCLDY    63  52  67 SE9       29.91R
MOORHEAD       MOCLDY    64  52  63 E10       29.86S
PARK RAPIDS    CLEAR     61  51  70 E9        29.93R
MAHNOMEN       PTSUNNY   63  51  66 SE8       29.89F
$$
MNZ006-009>011-018-025>026-250900-
   North Central Minnesota

CITY           SKY/WX    TMP DP  RH WIND       PRES   REMARKS
BAUDETTE       CLEAR     52  49  89 SE6       29.95F
FLAG ISLAND    CLEAR     57  54  88 SE7       29.93F
INTL FALLS     CLEAR     44  43  96 CALM      29.97S
WASKISH        CLEAR     54  50  87 CALM      29.94F
BIG FORK       CLOUDY    55  54  94 SE6       29.98S
LONGVILLE      PTCLDY    55  54  94 SE3       29.97R
CRANE LAKE     CLEAR     52  52 100 CALM      30.00S
ORR            CLOUDY    54  52  94 CALM      29.97S
COOK           CLOUDY    55  54  94 SE5       30.00F
WALKER         FAIR      59  55  85 E7        29.94F
$$
MNZ012-019>021-037-250900-
   Northeast Minnesota

CITY           SKY/WX    TMP DP  RH WIND       PRES   REMARKS
DULUTH         FOG       51  50  96 E10       30.01F VSB 1/2
ELY            PTCLDY    50  48  93 S7        30.02R
HIBBING        CLOUDY    53  52  96 SE12      30.01S
EVELETH        CLOUDY    54  52  94 CALM      30.03S
DULUTH HARBOR  FOG       46  45  93 E14       30.04S VSB 1/2
TWO HARBORS    HAZE      54  48  82 NE7       30.02S VSB 1
SILVER BAY     FOG       52  50  93 NE7       30.04R VSB 3/4
GRAND MARAIS     N/A     51  49  92 NE10      30.05S
G MARAIS ARPRT DRZL/FOG  48  46  93 E3        30.06R VSB 1/4
$$
MNZ029>031-032-039>041-046>048-054>057-064-250900-
   West Central Minnesota

CITY           SKY/WX    TMP DP  RH WIND       PRES   REMARKS
FERGUS FALLS   CLOUDY    64  50  59 SE8       29.83F
WHEATON        CLOUDY    63  55  77 SE9       29.85F
MORRIS         CLOUDY    63  54  72 E10       29.84F
ALEXANDRIA     CLOUDY    62  51  67 SE10      29.90F
ELBOW LAKE     FAIR      64  52  66 SE13      29.86F
WADENA         CLEAR     57  52  82 E6        29.92R
GLENWOOD       CLOUDY    61  54  77 E8        29.90F
APPLETON       CLOUDY    63  54  72 E9        29.83F
ORTONVILLE     CLOUDY    64  54  68 E6        29.83F
MADISON        CLOUDY    63  54  72 SE7       29.83F
WILLMAR        FAIR      64  59  82 E9        29.89F
$$
MNZ033>034-036-042>043-049>051-058-059-250900-
   Central Minnesota

CITY           SKY/WX    TMP DP  RH WIND       PRES   REMARKS
ST CLOUD       CLOUDY    62  54  74 E8        29.91F
SAUK CENTRE    FAIR      59  52  78 E10       29.91S
PAYNESVILLE    CLOUDY    64  56  76 E7        29.91F
AITKIN         CLOUDY    57  54  88 E7        29.96S
PINE RIVER     PTCLDY    55  55 100 E7        29.98R
BRAINERD       PTCLDY    56  53  90 E9        29.95S
STAPLES        CLEAR     57  52  82 E5        29.93R
LONG PRAIRIE   FAIR      59  50  72 E10       29.92S
LITTLE FALLS   MOCLDY    59  50  72 E7        29.92F
LITCHFIELD     CLOUDY    63  61  94 E5        29.91S
BUFFALO        CLOUDY    62  56  80 CALM      29.93S
MAPLE LAKE     PTCLDY    64  59  84 CALM      29.92F
HUTCHINSON     CLOUDY    64  59  83 E6        29.91S
$$
MNZ037-044-045-052-053-250900-
   East Central Minnesota

CITY           SKY/WX    TMP DP  RH WIND       PRES   REMARKS
PRINCETON      CLOUDY    63  57  82 NE6       29.94S
MORA           CLOUDY    55  54  94 E3        29.99S FOG
CAMBRIDGE      CLOUDY    63  54  72 CALM      29.93F
RUSH CITY      CLOUDY    56  54  94 NE6       29.96F
MOOSE LAKE     CLOUDY    50  46  87 NE5       30.00S FOG
HINCKLEY       CLOUDY    55  55 100 NE5       29.99R
CLOQUET        FOG       52  48  87 E7        30.02S VSB 1/2
MCGREGOR       CLOUDY    54  52  94 E13G18    30.00R
$$
MNZ071>073-080-081-089-090-097-098-250900-
   Southwest Minnesota

CITY           SKY/WX    TMP DP  RH WIND       PRES   REMARKS
MONTEVIDEO     MOCLDY    64  55  72 S5        29.86F
GRANITE FALLS  CLOUDY    66  58  73 E7        29.86F
CANBY          MOCLDY    64  56  78 NE5       29.84F
MARSHALL       CLOUDY    67  61  81 SE8       29.84F
REDWOOD FALLS  CLOUDY    66  57  72 SE8       29.86F
OLIVIA         CLOUDY    59  52  77 SE7       29.87F
PIPESTONE      CLOUDY    66  61  82 SE9       29.83F
WINDOM         CLOUDY    66  61  82 CALM      29.86F
WORTHINGTON    CLOUDY    64  61  90 SE7       29.85F
JACKSON        CLOUDY    64  59  82 SE8       29.87F
SLAYTON        CLOUDY    64  61  93 E6        29.87F
$$
MNZ065>067-074>077-082>085-091>093-250900-
   South Central Minnesota

CITY           SKY/WX    TMP DP  RH WIND       PRES   REMARKS
MANKATO        CLOUDY    66  55  68 SE8       29.89F
NEW ULM        CLOUDY    66  57  72 SE8       29.88F
ST JAMES       CLOUDY    61  55  82 E6        29.88F
FAIRMONT       CLOUDY    64  54  68 SE7       29.87F
GLENCOE        CLOUDY    63  61  94 E5        29.90F
FARIBAULT      CLOUDY    61  55  82 CALM      29.92F
OWATONNA       CLOUDY    66  57  72 SE8       29.91F
WASECA         CLOUDY    64  55  72 E9        29.91F
ALBERT LEA     CLOUDY    64  57  77 SE7       29.90F
$$
MNZ078>079-086>088-094>096-250900-
   Southeast Minnesota

CITY           SKY/WX    TMP DP  RH WIND       PRES   REMARKS
ROCHESTER      CLOUDY    63  59  87 SE8       29.94F
RED WING       CLOUDY    57  55  94 CALM      29.93S
STANTON        CLOUDY    66  57  72 CALM      29.91F
DODGE CENTER   CLOUDY    63  57  82 SE9       29.94F
WINONA         CLOUDY    61  59  94 CALM      29.95F
AUSTIN         CLOUDY    63  57  82 E5        29.92F
PRESTON        CLOUDY    65  57  76 SE3       29.95F
$$
ABBREVIATIONS USED IN REMARKS
   TC - TEMPERATURES IN CELSIUS
  WCI - WIND CHILL INDEX
   HX - HEAT INDEX
  VSB - VISIBILITY
$$




USA.gov is the U.S. government's official web portal to all federal, state and local government web resources and services.